GFSSE_850_rhum_105.txt.gz
RH
39 51 40 38 38 40 43 48 48 46 45 39 44 56 54 60 56 54 48 42 39 39 40 44 45 45 42 39 42 47 52 50 63 67 70 70 64 64 59 65 83 92 72
52 57 44 44 40 42 46 49 48 42 37 38 48 58 56 62 60 57 53 47 42 40 45 52 52 56 53 49 48 50 49 63 65 65 75 71 66 65 65 72 89 76 74
64 65 48 42 40 42 46 44 42 40 37 41 51 61 58 63 65 61 57 52 48 46 48 51 52 54 56 59 61 62 64 64 67 72 76 94 97 65 70 75 90 72 72
63 70 53 46 45 44 46 42 42 39 38 43 56 62 61 64 68 65 61 57 53 52 53 52 53 54 56 61 62 64 61 62 67 73 80 86 89 66 65 67 85 72 74
58 69 80 49 50 52 46 44 43 40 39 43 53 61 63 66 69 69 65 62 59 58 61 58 58 56 58 60 64 66 61 64 64 72 90 88 87 64 63 56 71 74 78
63 69 81 53 53 58 50 48 46 43 42 44 54 63 66 68 70 71 69 66 63 64 67 66 63 62 59 62 69 68 62 63 71 74 82 80 85 74 66 66 69 79 78
74 72 78 52 54 53 54 52 47 45 44 44 49 59 66 69 68 69 70 66 66 68 70 67 66 64 58 63 73 71 66 64 68 79 79 85 84 80 66 77 78 75 82
85 82 83 55 49 53 58 55 50 48 48 46 48 54 59 62 61 64 68 65 65 65 70 70 67 64 60 61 71 79 74 65 62 81 76 79 80 84 70 72 82 79 82
92 95 94 71 53 58 60 60 56 54 54 51 51 52 52 53 55 60 64 64 66 65 69 68 67 62 64 63 70 81 80 71 75 73 71 77 80 76 75 72 78 84 80
90 100 99 98 57 58 62 62 59 59 60 57 57 57 56 56 57 60 67 69 69 68 69 68 67 66 65 67 71 75 81 77 65 77 73 72 77 74 73 76 78 84 79
84 96 98 100 99 61 76 68 65 65 65 63 64 64 63 62 60 61 65 68 68 70 67 70 73 75 69 74 72 75 79 80 86 86 81 86 89 67 65 73 78 80 80
61 84 96 100 92 72 95 100 79 69 70 69 69 69 70 70 94 95 87 72 70 70 69 71 80 81 75 88 76 80 78 92 93 88 86 85 80 64 57 77 80 80 81
34 69 85 98 97 77 71 79 90 98 96 89 78 92 84 94 92 95 89 91 80 75 76 75 78 87 91 94 98 87 75 94 94 95 93 88 80 69 66 84 92 84 81
18 36 69 84 98 99 99 92 95 96 97 91 93 96 92 93 85 82 78 88 92 97 96 98 89 93 96 97 97 98 91 93 98 94 90 90 81 73 78 87 93 93 86
18 20 28 57 80 94 99 93 97 98 93 61 87 81 86 83 82 80 78 78 90 90 98 94 89 85 92 96 98 99 96 90 96 93 89 90 86 73 73 88 92 88 88
27 27 34 30 53 73 84 96 95 94 91 95 93 55 54 57 70 86 80 79 79 92 90 93 95 92 94 94 96 98 96 97 94 91 90 97 84 74 71 77 84 96 90
34 37 47 51 34 54 74 82 87 90 92 82 86 95 34 44 47 90 95 93 86 82 85 90 88 95 99 96 97 96 96 95 96 97 98 100 97 75 71 81 83 77 93
40 49 56 58 63 45 32 66 77 77 89 88 79 88 69 35 41 55 91 94 97 75 87 90 96 86 96 100 99 97 94 96 99 98 98 99 92 95 81 76 89 91 89
44 54 59 63 66 72 46 29 54 74 78 82 83 81 94 70 74 40 73 54 78 83 90 100 93 90 94 98 99 98 95 97 99 95 92 95 95 94 85 77 87 81 97
53 59 59 61 64 73 71 49 34 54 70 75 76 81 88 90 63 68 64 46 55 71 89 86 96 98 97 97 99 98 99 100 97 87 96 96 92 98 92 84 78 79 98
58 62 67 70 72 69 69 67 58 49 51 67 74 76 83 98 98 94 92 93 52 50 83 80 100 100 99 98 96 96 100 96 91 97 96 87 74 85 100 83 84 72 95
64 72 77 77 79 80 78 76 76 68 53 54 64 75 82 94 100 98 98 95 55 49 84 91 100 96 100 98 99 99 98 99 99 98 97 86 71 79 92 87 98 92 98
64 76 82 86 83 87 93 91 85 80 69 51 73 74 82 89 90 72 60 97 53 49 61 66 92 87 98 94 99 97 99 98 99 97 98 92 80 80 86 80 99 99 98
62 76 86 94 90 95 99 99 99 92 73 47 51 67 83 86 93 99 82 100 87 59 63 56 71 99 99 83 99 98 94 84 92 96 100 97 80 80 79 85 90 99 99
66 77 89 97 97 98 98 95 97 99 97 79 56 61 66 86 91 100 100 100 70 92 68 84 100 99 98 94 81 96 98 96 96 91 100 89 92 79 75 76 78 88 99
70 83 95 100 99 99 99 100 98 98 99 94 70 68 70 84 84 96 99 98 86 77 66 65 50 94 88 81 87 95 94 97 97 96 92 94 81 76 72 74 76 82 92

GFSSE_850_rhum_108.txt.gz
RH
51 46 35 32 32 32 34 37 40 40 42 45 42 54 52 55 53 50 44 39 37 38 36 34 36 37 41 48 59 61 62 54 56 62 64 66 60 66 62 71 82 69 71
59 56 45 36 33 32 36 38 42 44 42 40 36 52 55 56 57 54 48 43 40 39 39 42 44 44 44 41 43 47 49 47 60 59 66 70 63 62 68 90 95 73 68
61 64 52 43 38 36 38 42 42 42 39 34 38 50 56 56 62 58 55 49 45 43 46 51 52 54 54 51 50 53 56 60 60 61 71 68 62 61 64 75 86 72 70
58 63 57 48 46 41 43 46 44 42 38 36 41 51 59 57 65 62 60 56 51 48 49 52 52 54 54 57 62 62 62 62 59 65 78 94 64 56 60 81 82 69 71
50 62 59 46 46 46 48 50 45 42 37 37 43 50 60 59 65 67 64 60 57 54 55 56 57 55 55 58 60 63 63 57 61 64 84 83 84 63 61 70 83 67 72
62 62 69 50 45 47 52 54 47 42 39 38 42 52 61 62 65 68 68 64 61 58 59 60 62 61 57 57 59 64 63 57 58 67 86 85 85 66 58 68 75 74 72
70 69 70 67 52 51 54 55 49 45 41 42 44 54 62 64 67 70 68 66 64 61 64 66 62 63 62 58 64 69 66 60 58 66 86 81 90 83 60 60 71 71 70
52 81 77 74 61 58 59 53 53 48 45 46 47 51 60 66 69 70 69 64 64 65 66 68 67 64 66 61 61 69 68 62 58 72 90 88 65 73 65 62 70 70 70
66 90 86 87 73 61 63 56 56 52 49 49 48 50 55 63 66 68 66 64 64 65 65 66 65 63 68 65 63 67 72 73 64 73 85 75 80 71 73 66 73 66 70
65 72 95 96 77 58 59 60 60 57 54 52 52 52 52 57 60 64 64 66 67 69 69 65 64 62 60 67 69 70 74 75 68 58 82 90 69 64 62 74 78 65 76
52 75 71 97 96 67 62 64 65 62 60 58 57 56 55 55 56 58 61 65 69 75 73 68 67 70 67 64 71 75 78 72 66 62 80 81 87 74 65 68 77 73 79
26 68 74 76 98 97 84 70 68 66 63 62 62 60 60 61 61 61 59 63 66 76 80 72 68 71 74 76 67 74 75 74 72 68 75 86 79 75 68 66 71 72 84
20 46 66 70 88 98 98 99 93 77 69 67 68 65 63 64 68 77 79 74 73 75 84 80 72 73 76 80 81 75 74 75 75 84 82 81 79 76 69 64 71 67 90
17 23 67 67 72 88 98 96 99 94 84 75 72 70 71 72 73 86 80 83 80 73 76 78 77 78 76 76 84 92 79 79 80 86 82 78 86 85 80 69 72 74 97
17 22 24 54 81 78 87 93 91 89 93 91 96 87 76 80 77 78 94 80 84 80 77 80 82 82 83 79 80 88 89 85 87 96 91 84 85 80 82 71 76 85 87
24 28 29 27 48 75 85 79 91 97 90 93 89 96 91 89 88 78 82 83 82 84 83 85 82 88 81 84 87 90 90 90 83 89 86 94 82 83 77 69 72 89 96
31 35 44 47 43 49 74 80 84 78 86 89 90 84 82 79 82 92 84 85 73 85 82 84 81 89 87 89 87 89 89 88 88 88 89 96 89 91 76 69 71 78 91
36 44 54 59 61 45 36 73 78 85 82 85 89 91 84 77 67 68 78 82 81 81 79 83 72 89 86 90 89 95 92 93 91 90 91 91 98 95 82 73 82 77 91
42 52 58 61 63 65 46 28 36 75 78 84 83 84 90 84 78 56 70 72 61 76 82 89 84 79 82 85 87 98 98 97 93 96 96 95 96 98 96 84 78 78 79
53 60 63 67 69 67 57 51 42 31 35 70 80 88 85 86 84 79 82 92 71 72 65 87 80 76 83 84 92 95 98 96 95 93 96 99 96 98 93 94 89 84 80
60 67 69 67 59 59 62 70 69 66 65 56 62 73 86 83 81 92 87 90 98 100 66 73 72 80 86 91 91 94 95 94 94 98 99 91 97 95 84 80 86 90 82
63 68 66 65 54 56 66 66 67 68 63 61 53 68 75 70 80 81 96 84 97 99 93 74 57 72 98 93 92 89 92 88 92 100 97 100 99 91 78 73 85 97 88
61 71 77 75 71 71 77 78 83 81 74 67 46 49 67 78 68 79 87 91 92 84 89 95 90 65 77 97 98 92 93 84 84 90 98 99 93 89 80 79 82 86 99
63 72 81 82 78 84 83 81 88 98 98 74 77 67 51 77 78 70 65 74 94 82 89 76 95 94 96 94 98 99 84 85 92 98 96 99 97 93 82 86 81 78 87
67 78 86 78 74 73 82 87 94 93 97 96 80 61 65 65 80 73 78 75 85 82 80 47 92 99 99 93 96 100 94 94 94 84 93 94 95 98 87 83 81 76 89
72 81 84 75 78 88 98 98 98 98 94 95 98 89 59 61 66 77 67 71 86 93 87 81 60 77 96 82 65 87 88 90 96 90 90 91 82 90 86 76 79 84 78

GFSSE_850_rhum_114.txt.gz
RH
49 42 32 35 35 31 27 25 26 30 34 37 44 45 43 46 47 35 37 37 37 40 36 37 46 52 60 76 84 87 86 80 65 62 69 72 69 68 66 66 66 60 63
37 49 37 42 39 32 30 29 29 34 36 39 41 47 50 51 52 41 38 40 38 37 35 36 41 48 56 73 77 82 84 73 54 71 74 75 71 67 66 68 64 61 60
42 49 48 44 45 39 37 37 35 35 38 38 35 44 52 54 55 50 44 45 42 37 36 37 40 42 45 53 62 72 57 54 60 68 78 75 68 64 72 71 69 67 66
31 55 56 46 48 42 40 42 42 41 41 40 35 40 51 54 58 56 51 50 44 41 39 42 44 46 48 48 48 51 56 60 66 72 82 76 68 64 72 84 71 70 70
21 40 58 55 50 47 43 41 43 45 43 41 37 42 51 54 60 60 55 52 45 45 45 46 49 51 55 56 57 61 66 68 66 75 77 76 72 69 70 80 68 74 70
13 32 57 65 59 52 46 43 44 45 43 40 38 43 52 55 60 64 60 57 51 47 49 51 51 53 53 54 58 62 67 68 71 71 85 73 67 60 70 84 74 73 74
12 25 58 69 69 61 51 48 46 46 44 40 39 42 50 57 59 66 65 61 57 50 47 54 57 57 58 57 55 58 66 67 68 70 75 70 73 74 75 75 74 74 74
15 17 31 70 71 69 59 53 50 50 46 42 39 41 46 56 59 63 66 64 60 56 51 52 60 58 60 60 59 58 68 69 67 66 71 73 60 61 62 65 67 72 75
18 25 24 34 58 71 63 59 56 55 49 44 41 41 44 52 58 61 66 65 62 58 57 56 58 61 60 62 64 59 65 74 74 66 65 68 69 73 63 62 59 69 73
21 30 34 36 47 60 72 63 63 61 54 48 44 44 45 49 55 59 63 64 62 60 60 60 59 60 62 60 63 64 66 80 80 74 68 69 68 63 57 66 67 70 73
19 28 45 42 58 58 70 73 64 64 59 52 48 48 50 51 54 59 63 64 61 61 61 60 60 60 63 64 61 62 64 71 83 82 73 77 74 67 52 54 65 69 71
25 35 44 51 59 62 63 74 71 66 62 55 52 51 52 50 52 55 58 61 59 58 59 60 62 63 66 63 64 62 64 67 76 81 79 73 75 68 63 53 61 76 69
16 25 44 58 73 79 78 71 72 74 68 61 56 54 53 53 52 53 54 57 58 59 62 64 64 65 65 62 60 62 64 65 70 76 77 74 78 79 75 65 67 73 79
15 17 34 79 80 89 92 89 83 78 74 69 63 58 56 57 55 52 51 53 53 55 55 60 61 62 66 64 62 62 63 67 70 79 79 79 80 81 81 81 75 76 73
18 22 60 76 93 98 93 97 92 85 86 86 74 67 63 61 60 58 55 55 55 54 54 57 59 62 65 68 68 68 69 67 73 81 83 81 85 86 83 82 77 79 74
33 61 84 85 66 81 90 92 96 98 97 98 98 91 75 70 67 66 64 59 58 55 52 55 57 61 64 70 71 69 72 76 74 80 86 85 81 82 85 81 78 82 77
36 41 45 44 43 48 77 90 84 89 97 96 99 98 88 84 83 76 75 69 63 63 60 63 67 76 73 73 70 71 77 84 85 79 82 89 86 88 85 85 80 77 76
46 47 45 41 41 42 42 48 75 88 89 88 91 89 91 97 92 85 85 84 76 72 77 84 78 80 84 77 73 74 83 89 91 91 86 89 87 92 87 83 80 79 72
44 44 41 40 40 39 37 35 36 53 76 86 90 90 90 79 82 93 87 84 82 76 79 85 90 87 88 81 67 75 86 94 95 95 90 85 90 92 92 88 88 88 77
46 40 38 36 36 33 27 26 26 30 32 49 68 86 86 87 86 85 93 88 82 82 84 81 89 88 86 82 72 76 96 95 98 97 93 91 91 94 92 91 92 90 82
53 48 41 32 24 28 31 30 29 27 29 29 32 43 65 79 87 88 87 89 95 89 85 81 76 86 88 87 86 89 100 100 99 89 85 86 94 96 89 97 94 94 88
46 43 36 33 33 34 36 41 43 40 35 37 37 33 32 43 61 74 80 87 88 93 89 85 80 78 74 75 86 88 100 99 99 87 87 92 86 86 84 94 95 90 83
44 44 39 39 38 36 36 43 51 53 53 50 50 48 47 46 38 48 62 76 82 94 92 90 82 77 75 76 87 100 99 93 93 89 89 85 81 82 86 95 95 84 82
56 48 45 40 36 38 41 45 58 62 58 58 62 60 56 57 56 53 47 57 72 76 86 90 89 74 73 85 88 66 83 94 92 85 98 92 85 87 83 93 94 85 83
56 41 47 42 26 34 45 47 54 65 68 65 68 78 76 75 75 70 65 56 55 67 74 94 91 90 80 84 89 74 65 72 83 69 78 76 93 87 75 90 96 88 84
52 42 54 48 33 45 52 60 63 70 75 74 73 80 80 82 86 89 82 76 67 60 65 76 96 94 89 78 79 82 77 76 93 70 88 65 76 75 73 82 93 82 88

GFSSE_850_rhum_117.txt.gz
RH
37 36 44 43 43 38 35 28 24 27 31 33 31 32 34 37 37 33 37 40 44 46 38 40 42 50 62 74 78 79 77 68 54 64 68 68 64 64 66 69 68 62 63
48 38 42 44 44 41 38 35 32 32 37 39 41 39 40 42 43 35 38 39 40 42 36 39 43 47 60 72 76 76 75 68 53 69 67 67 66 64 70 70 62 61 58
38 48 41 46 46 44 42 39 37 37 37 40 44 49 48 50 51 37 39 42 40 39 36 38 42 45 54 66 68 68 56 53 56 70 67 69 69 69 72 69 64 61 59
35 41 47 43 46 44 44 44 41 40 41 41 42 49 52 53 54 47 38 42 42 39 38 39 42 46 50 54 53 53 50 55 64 71 73 74 71 71 77 71 69 68 66
24 39 49 48 47 46 44 45 44 44 45 43 39 43 51 53 56 56 46 42 41 42 41 43 45 47 49 52 50 51 57 61 66 72 74 75 70 71 78 78 68 69 69
15 23 47 53 52 52 48 47 47 46 46 44 39 38 48 52 57 59 55 49 42 41 44 46 48 49 52 55 57 60 62 62 66 71 70 73 68 71 75 82 73 68 71
14 16 27 50 65 62 54 50 50 50 48 44 41 37 43 51 55 60 61 56 52 45 44 48 51 53 54 55 59 63 63 63 65 68 74 71 73 73 71 75 79 75 70
19 18 22 35 52 63 65 56 52 51 51 48 42 38 40 48 54 60 64 61 59 53 48 49 52 54 56 58 59 61 64 64 64 67 68 71 75 65 74 73 80 78 74
18 22 26 27 34 51 68 66 58 52 53 52 44 41 43 47 56 59 64 65 63 60 56 53 56 55 56 59 62 61 65 66 63 66 66 73 77 66 64 66 73 77 72
17 18 24 32 36 38 49 66 65 61 57 56 48 43 44 48 54 59 61 66 66 66 61 58 56 59 59 59 63 64 64 65 64 62 61 66 70 74 70 64 69 67 69
16 17 21 44 46 54 58 67 71 66 65 63 53 47 48 49 50 56 59 63 64 67 66 63 62 62 62 63 63 66 65 64 65 62 64 65 73 72 74 67 72 67 66
16 17 18 41 56 70 68 67 80 84 73 71 60 52 51 51 50 55 59 62 65 68 70 70 69 68 67 67 61 63 65 66 68 64 64 66 64 67 70 68 64 70 67
16 17 17 20 46 73 80 84 78 82 84 77 67 59 55 54 54 55 58 62 65 69 71 76 75 74 72 70 63 60 64 69 67 66 66 68 67 65 68 71 58 65 70
16 16 18 54 65 67 86 91 96 88 88 84 74 67 65 62 58 54 52 56 60 61 58 65 73 74 72 72 70 65 63 67 68 66 69 71 66 66 69 72 74 69 68
16 16 22 68 80 74 86 86 91 100 93 87 83 77 72 67 62 60 56 53 52 56 57 60 65 69 74 76 76 73 68 67 68 67 67 70 74 68 69 71 73 76 75
17 18 37 69 72 72 78 86 89 88 92 99 97 97 89 79 72 68 65 62 59 59 60 59 59 60 66 76 79 78 75 69 70 70 71 70 73 73 68 72 76 79 76
37 30 64 73 59 61 80 94 93 84 78 80 97 99 100 100 92 84 78 73 70 68 65 65 66 70 75 80 82 83 81 74 74 79 76 78 73 77 76 73 78 77 79
47 69 78 74 63 50 65 84 88 83 80 80 76 82 93 100 100 100 99 94 83 78 78 77 73 76 77 81 84 84 86 86 80 82 80 76 77 76 77 77 80 79 80
60 57 53 45 42 43 42 40 38 44 66 77 80 82 89 94 97 100 99 100 96 96 92 80 82 84 75 84 85 89 87 88 87 83 82 80 83 83 80 81 82 81 81
65 59 52 49 45 41 37 32 28 28 32 37 51 62 69 80 83 86 92 97 90 93 88 93 85 73 52 82 76 80 86 82 88 90 90 92 90 92 90 89 89 87 86
68 59 50 45 37 31 27 24 22 21 25 29 30 31 35 45 64 77 82 85 87 78 86 90 91 76 62 98 73 58 71 78 79 84 84 91 97 100 97 94 91 90 90
60 55 45 35 31 28 27 25 24 24 25 28 30 33 36 38 37 36 53 73 81 84 90 97 98 97 95 88 81 80 92 81 68 77 89 89 87 92 97 97 95 98 94
55 48 45 39 34 30 27 28 32 31 35 36 37 39 43 46 49 47 44 40 46 66 77 84 99 100 99 91 91 87 86 93 88 78 82 86 90 86 88 88 92 86 92
66 55 44 35 24 17 16 14 17 17 26 33 35 35 37 46 60 65 63 60 54 46 51 67 81 94 99 99 94 88 88 75 87 98 88 78 81 81 82 81 84 85 92
65 70 51 46 31 27 26 23 25 29 37 41 48 49 48 51 65 73 79 76 71 67 64 56 62 78 89 88 93 94 98 90 81 64 68 60 70 78 79 68 82 81 86
61 66 56 58 47 44 41 40 41 38 46 53 55 59 61 62 63 74 84 88 91 86 83 76 69 64 83 88 82 84 90 92 88 67 65 58 47 61 69 70 67 78 81